Location: Thessaloniki
(40.6330°N, 22.9330°E)
Time: 18:29:53
(UTC+03:00)

ISS - Visible Passes

Search period start: 17 July 2018 00:00
Search period end: 27 July 2018 00:00
Orbit: 402 x 408 km, 51.6° (Epoch: 18 July)

Date Brightness Start Highest point End Pass type
(mag) Time Alt. Az. Time Alt. Az. Time Alt. Az.
17 Jul -0.9 01:08:34 16° NNE 01:08:34 16° NNE 01:09:28 10° NE visible
17 Jul -0.6 02:42:21 10° NNW 02:43:55 13° N 02:45:28 10° NNE visible
17 Jul -0.7 04:19:17 10° NNW 04:21:27 16° NNE 04:23:38 10° ENE visible
18 Jul -0.6 01:50:11 12° NW 01:51:31 14° NNW 01:53:26 10° NNE visible
18 Jul -0.5 03:27:20 10° NNW 03:29:05 14° N 03:30:50 10° NE visible
18 Jul -2.0 05:03:14 10° NW 05:06:18 35° NNE 05:09:22 10° E visible
18 Jul-0.823:25:44NE23:25:44NE23:17:24SWvisible
19 Jul -0.9 00:58:10 16° NW 00:59:09 18° NNW 01:01:29 10° NNE visible
19 Jul -0.4 02:35:11 10° NNW 02:36:39 12° N 02:38:08 10° NNE visible
19 Jul -1.3 04:11:19 10° NNW 04:14:03 24° NNE 04:16:48 10° E visible
19 Jul -3.8 22:26:58 10° SW 22:30:09 53° SE 22:33:22 10° ENE visible
20 Jul -1.4 00:04:06 10° W 00:06:49 24° NNW 00:09:34 10° NNE visible
20 Jul -0.3 01:42:44 10° NNW 01:44:13 12° N 01:45:42 10° NNE visible
20 Jul -0.8 03:19:24 10° NNW 03:21:43 18° NNE 03:24:03 10° ENE visible
20 Jul -3.7 04:55:21 10° NW 04:58:39 77° NE 05:01:56 10° ESE visible
20 Jul -2.9 21:35:20 10° SSW 21:38:09 27° SE 21:40:58 10° ENE visible
20 Jul -2.2 23:11:30 10° W 23:14:33 35° NNW 23:17:37 10° NE visible
21 Jul -0.4 00:50:01 10° NW 00:51:46 14° N 00:53:32 10° NNE visible
21 Jul -0.5 02:27:26 10° NNW 02:29:20 14° NNE 02:31:13 10° NE visible
21 Jul -2.5 04:03:19 10° NW 04:06:28 42° NNE 04:09:38 10° ESE visible
21 Jul -2.5 05:40:12 10° W 05:42:48 22° SW 05:45:23 10° S visible
21 Jul -3.3 22:19:06 10° WSW 22:22:20 61° NW 22:25:36 10° NE visible
21 Jul -0.7 23:57:11 10° WNW 23:59:21 16° NNW 00:01:31 10° NNE visible
22 Jul -0.4 01:35:21 10° NNW 01:36:53 13° N 01:38:26 10° NNE visible
22 Jul -1.6 03:11:21 10° NW 03:14:13 27° NNE 03:17:05 10° E visible
22 Jul -3.5 04:47:39 10° WNW 04:50:48 41° SW 04:53:55 10° SSE visible
22 Jul -3.9 21:26:57 10° SW 21:30:12 69° SE 21:33:28 10° ENE visible
22 Jul -1.1 23:04:22 10° WNW 23:06:58 21° NNW 23:09:34 10° NNE visible
23 Jul -0.4 00:42:58 10° NNW 00:44:24 12° N 00:45:50 10° NNE visible
23 Jul -0.9 02:19:23 10° NNW 02:20:45 17° N 02:20:45 17° N visible
23 Jul -1.7 22:11:41 10° W 22:14:38 30° NNW 22:17:35 10° NE visible
23 Jul -0.5 23:50:18 10° NW 23:51:55 13° N 23:53:32 10° NNE visible
24 Jul -0.6 01:27:24 10° NNW 01:29:01 15° N 01:29:01 15° N visible
24 Jul -2.7 21:19:10 10° WSW 21:22:21 49° NNW 21:25:33 10° NE visible
24 Jul -0.7 22:57:27 10° NW 22:59:26 15° NNW 23:01:27 10° NNE visible
25 Jul -0.6 00:35:20 10° NNW 00:36:59 13° N 00:37:59 12° NNE visible
25 Jul -0.9 22:04:34 10° WNW 22:07:00 19° NNW 22:09:26 10° NNE visible
25 Jul -0.6 23:43:03 10° NNW 23:44:28 12° N 23:45:54 10° NNE visible
26 Jul -0.5 01:19:16 10° NNW 01:19:48 13° NNW 01:19:48 13° NNW visible
26 Jul -0.7 22:50:26 10° NNW 22:51:57 12° N 22:53:27 10° NNE visible
